User: anonymous   Login
Location: Caltech
(34.1382°N, 118.1253°W)
Time: 20:21:42
(UTC-08:00)
Language:

Cosmos 1484 Rocket - Orbit

View from above orbital plane
View from above orbital plane
View from above satellite
View from above satellite

Ground track
Ground track

The orbit data is extracted from the following two-line orbital elements,

1 14208U 83075B   15025.55775128  .00001344  00000-0  89521-4 0  2298
2 14208 097.4004 059.3868 0039949 259.4015 100.2712 15.08151217715704
Epoch (UTC): 25 January 2015 13:23:09
Eccentricity: 0.0039949
inclination: 97.4004°
perigee height: 514 km
apogee height: 569 km
right ascension of ascending node: 59.3868°
argument of perigee: 259.4015°
revolutions per day: 15.08151217
mean anomaly at epoch: 100.2712°
orbit number at epoch: 71570

The dashed part of the orbit path shows where the satellite is in the earth's shadow,  

DLR